Time,TemperatureF,DewpointF,PressureIn,WindDirection,WindDirectionDegrees,WindSpeedMPH,WindSpeedGustMPH,Humidity,HourlyPrecipIn,Conditions,Clouds,dailyrainin,SoftwareType,DateUTC
2013-03-30 00:02:00,43.0,36.0,30.25,NNW,335,15.0,22.0,75,0.00,,,0.00,,2013-03-30 04:02:00,
2013-03-30 00:13:00,43.0,36.0,30.25,NNW,335,15.0,22.0,75,0.00,,,0.00,,2013-03-30 04:13:00,
2013-03-30 00:23:00,43.0,35.0,30.24,NNW,342,17.0,23.0,74,0.00,,,0.00,,2013-03-30 04:23:00,
2013-03-30 00:33:00,43.0,36.0,30.24,NNW,345,18.0,26.0,76,0.00,,,0.00,,2013-03-30 04:33:00,
2013-03-30 00:43:00,43.0,36.0,30.24,NNW,345,18.0,26.0,76,0.00,,,0.00,,2013-03-30 04:43:00,
2013-03-30 00:53:00,43.0,36.0,30.23,NW,315,14.0,23.0,75,0.00,,,0.00,,2013-03-30 04:53:00,
2013-03-30 01:02:00,43.0,35.0,30.23,NW,325,13.0,21.0,74,0.00,,,0.00,,2013-03-30 05:02:00,
2013-03-30 01:12:00,43.0,35.0,30.23,NW,325,13.0,21.0,74,0.00,,,0.00,,2013-03-30 05:12:00,
2013-03-30 01:22:00,43.0,36.0,30.23,WNW,284,19.0,22.0,77,0.00,,,0.00,,2013-03-30 05:22:00,
2013-03-30 01:32:00,43.0,36.0,30.23,NNW,330,21.0,24.0,77,0.00,,,0.00,,2013-03-30 05:32:00,
2013-03-30 01:42:00,43.0,36.0,30.23,NNW,330,21.0,24.0,77,0.00,,,0.00,,2013-03-30 05:42:00,
2013-03-30 01:52:00,43.0,36.0,30.23,NW,308,16.0,24.0,75,0.00,,,0.00,,2013-03-30 05:52:00,
2013-03-30 02:02:00,43.0,36.0,30.23,NW,305,14.0,20.0,76,0.00,,,0.00,,2013-03-30 06:02:00,
2013-03-30 02:12:00,43.0,36.0,30.23,NW,305,14.0,20.0,76,0.00,,,0.00,,2013-03-30 06:12:00,
2013-03-30 02:23:00,42.0,37.0,30.23,NW,315,16.0,19.0,81,0.00,,,0.00,,2013-03-30 06:23:00,
2013-03-30 02:32:00,42.0,37.0,30.23,NW,319,16.0,22.0,81,0.01,,,0.01,,2013-03-30 06:32:00,
2013-03-30 02:42:00,42.0,37.0,30.23,NW,319,16.0,22.0,81,0.01,,,0.01,,2013-03-30 06:42:00,
2013-03-30 02:52:00,43.0,36.0,30.22,NW,311,18.0,23.0,77,0.02,,,0.02,,2013-03-30 06:52:00,
2013-03-30 03:02:00,44.0,37.0,30.23,NW,304,20.0,24.0,75,0.02,,,0.02,,2013-03-30 07:02:00,
2013-03-30 03:12:00,44.0,37.0,30.23,NW,304,20.0,24.0,75,0.02,,,0.02,,2013-03-30 07:12:00,
2013-03-30 03:22:00,44.0,37.0,30.22,NW,308,18.0,21.0,75,0.02,,,0.02,,2013-03-30 07:22:00,
2013-03-30 03:32:00,44.0,36.0,30.22,NW,304,17.0,19.0,73,0.01,,,0.02,,2013-03-30 07:32:00,
2013-03-30 03:42:00,44.0,36.0,30.22,NW,304,17.0,19.0,73,0.01,,,0.02,,2013-03-30 07:42:00,
2013-03-30 03:52:00,43.0,37.0,30.21,NW,319,11.0,22.0,79,0.00,,,0.02,,2013-03-30 07:52:00,
2013-03-30 04:02:00,41.0,36.0,30.21,NW,321,12.0,20.0,83,0.00,,,0.02,,2013-03-30 08:02:00,
2013-03-30 04:12:00,41.0,36.0,30.21,NW,321,12.0,20.0,83,0.00,,,0.02,,2013-03-30 08:12:00,
2013-03-30 04:22:00,42.0,36.0,30.21,NW,309,16.0,21.0,80,0.00,,,0.02,,2013-03-30 08:22:00,
2013-03-30 04:32:00,42.0,36.0,30.21,NNW,327,16.0,23.0,80,0.00,,,0.02,,2013-03-30 08:32:00,
2013-03-30 04:42:00,42.0,36.0,30.21,NNW,327,16.0,23.0,80,0.00,,,0.02,,2013-03-30 08:42:00,
2013-03-30 04:53:00,41.0,37.0,30.21,NW,319,16.0,22.0,84,0.00,,,0.02,,2013-03-30 08:53:00,
2013-03-30 05:02:00,42.0,35.0,30.20,WNW,293,19.0,26.0,77,0.01,,,0.03,,2013-03-30 09:02:00,
2013-03-30 05:12:00,42.0,35.0,30.20,WNW,293,19.0,26.0,77,0.01,,,0.03,,2013-03-30 09:12:00,
2013-03-30 05:22:00,42.0,35.0,30.21,NW,316,13.0,18.0,76,0.01,,,0.03,,2013-03-30 09:22:00,
2013-03-30 05:43:00,41.0,36.0,30.21,NNW,345,12.0,17.0,82,0.01,,,0.03,,2013-03-30 09:43:00,
2013-03-30 05:54:00,42.0,35.0,30.22,NW,317,14.0,18.0,76,0.01,,,0.03,,2013-03-30 09:54:00,
2013-03-30 06:03:00,42.0,36.0,30.21,WNW,283,11.0,19.0,80,0.00,,,0.03,,2013-03-30 10:03:00,
2013-03-30 06:13:00,42.0,36.0,30.21,WNW,283,11.0,19.0,80,0.00,,,0.03,,2013-03-30 10:13:00,
2013-03-30 06:23:00,43.0,35.0,30.21,WNW,295,16.0,25.0,73,0.00,,,0.03,,2013-03-30 10:23:00,
2013-03-30 06:33:00,42.0,36.0,30.21,NW,304,14.0,21.0,79,0.00,,,0.03,,2013-03-30 10:33:00,
2013-03-30 06:42:00,42.0,36.0,30.21,NW,304,14.0,21.0,79,0.00,,,0.03,,2013-03-30 10:42:00,
2013-03-30 06:53:00,41.0,34.0,30.21,NW,307,12.0,14.0,77,0.00,,,0.03,,2013-03-30 10:53:00,
2013-03-30 07:03:00,41.0,35.0,30.21,NW,305,13.0,15.0,78,0.00,,,0.03,,2013-03-30 11:03:00,
2013-03-30 07:12:00,41.0,35.0,30.21,NW,305,13.0,15.0,78,0.00,,,0.03,,2013-03-30 11:12:00,
2013-03-30 07:23:00,42.0,34.0,30.21,WNW,295,15.0,16.0,74,0.00,,,0.03,,2013-03-30 11:23:00,
2013-03-30 07:33:00,43.0,33.0,30.21,WNW,297,14.0,16.0,68,0.00,,,0.03,,2013-03-30 11:33:00,
2013-03-30 07:42:00,43.0,33.0,30.21,WNW,297,14.0,16.0,68,0.00,,,0.03,,2013-03-30 11:42:00,
2013-03-30 07:53:00,42.0,34.0,30.21,NW,311,11.0,15.0,73,0.00,,,0.03,,2013-03-30 11:53:00,
2013-03-30 08:02:00,42.0,34.0,30.22,NW,311,11.0,13.0,72,0.00,,,0.03,,2013-03-30 12:02:00,
2013-03-30 08:13:00,42.0,34.0,30.22,NW,311,11.0,13.0,72,0.00,,,0.03,,2013-03-30 12:13:00,
2013-03-30 08:23:00,42.0,34.0,30.22,NW,316,10.0,11.0,74,0.00,,,0.03,,2013-03-30 12:23:00,
2013-03-30 08:32:00,42.0,35.0,30.23,NW,319,11.0,13.0,75,0.00,,,0.03,,2013-03-30 12:32:00,
2013-03-30 08:42:00,42.0,35.0,30.23,NW,319,11.0,13.0,75,0.00,,,0.03,,2013-03-30 12:42:00,
2013-03-30 08:53:00,43.0,34.0,30.23,WNW,298,9.0,12.0,69,0.00,,,0.03,,2013-03-30 12:53:00,
2013-03-30 09:02:00,43.0,33.0,30.23,WNW,289,8.0,13.0,68,0.00,,,0.03,,2013-03-30 13:02:00,
2013-03-30 09:12:00,43.0,33.0,30.23,WNW,289,8.0,13.0,68,0.00,,,0.03,,2013-03-30 13:12:00,
2013-03-30 09:22:00,43.0,32.0,30.23,WNW,285,7.0,9.0,66,0.00,,,0.03,,2013-03-30 13:22:00,
2013-03-30 09:32:00,43.0,34.0,30.23,WNW,295,4.0,7.0,69,0.00,,,0.03,,2013-03-30 13:32:00,
2013-03-30 09:43:00,43.0,34.0,30.23,WNW,295,4.0,7.0,69,0.00,,,0.03,,2013-03-30 13:43:00,
2013-03-30 09:53:00,43.0,33.0,30.24,West,274,6.0,8.0,67,0.00,,,0.03,,2013-03-30 13:53:00,
2013-03-30 10:03:00,44.0,36.0,30.24,West,274,4.0,7.0,72,0.00,,,0.03,,2013-03-30 14:03:00,
2013-03-30 10:12:00,44.0,36.0,30.24,West,274,4.0,7.0,72,0.00,,,0.03,,2013-03-30 14:12:00,
2013-03-30 10:23:00,45.0,37.0,30.23,SW,221,2.0,5.0,72,0.00,,,0.03,,2013-03-30 14:23:00,
2013-03-30 10:32:00,45.0,39.0,30.24,SSE,166,2.0,5.0,78,0.00,,,0.03,,2013-03-30 14:32:00,
2013-03-30 10:42:00,45.0,39.0,30.24,SSE,166,2.0,5.0,78,0.00,,,0.03,,2013-03-30 14:42:00,
2013-03-30 10:53:00,46.0,41.0,30.24,SSE,148,2.0,7.0,83,0.00,,,0.03,,2013-03-30 14:53:00,
2013-03-30 11:03:00,46.0,42.0,30.24,South,169,3.0,5.0,86,0.01,,,0.04,,2013-03-30 15:03:00,
2013-03-30 11:12:00,46.0,42.0,30.24,South,169,3.0,5.0,86,0.01,,,0.04,,2013-03-30 15:12:00,
2013-03-30 11:23:00,45.0,42.0,30.24,SSE,165,3.0,8.0,88,0.01,,,0.04,,2013-03-30 15:23:00,
2013-03-30 11:34:00,45.0,41.0,30.23,South,179,3.0,7.0,86,0.01,,,0.04,,2013-03-30 15:34:00,
2013-03-30 11:43:00,45.0,41.0,30.23,South,179,3.0,7.0,86,0.01,,,0.04,,2013-03-30 15:43:00,
2013-03-30 11:53:00,44.0,40.0,30.23,SE,133,3.0,6.0,86,0.01,,,0.04,,2013-03-30 15:53:00,
2013-03-30 12:03:00,45.0,41.0,30.23,ESE,115,3.0,8.0,86,0.00,,,0.04,,2013-03-30 16:03:00,
2013-03-30 12:13:00,45.0,40.0,30.24,SE,131,4.0,7.0,83,0.00,,,0.04,,2013-03-30 16:13:00,
2013-03-30 12:23:00,45.0,40.0,30.24,SE,131,4.0,7.0,83,0.00,,,0.04,,2013-03-30 16:23:00,
2013-03-30 12:33:00,45.0,39.0,30.23,SSE,158,4.0,7.0,80,0.00,,,0.04,,2013-03-30 16:33:00,
2013-03-30 12:43:00,45.0,39.0,30.23,SSE,158,4.0,7.0,80,0.00,,,0.04,,2013-03-30 16:43:00,
2013-03-30 12:53:00,45.0,38.0,30.23,SSE,156,5.0,8.0,77,0.00,,,0.04,,2013-03-30 16:53:00,
2013-03-30 13:02:00,46.0,39.0,30.22,SE,136,5.0,9.0,76,0.00,,,0.04,,2013-03-30 17:02:00,
2013-03-30 13:13:00,46.0,39.0,30.22,SE,136,5.0,9.0,76,0.00,,,0.04,,2013-03-30 17:13:00,
2013-03-30 13:23:00,48.0,39.0,30.22,SSE,168,4.0,8.0,72,0.00,,,0.04,,2013-03-30 17:23:00,
2013-03-30 13:32:00,48.0,39.0,30.21,WSW,246,2.0,8.0,72,0.00,,,0.04,,2013-03-30 17:32:00,
2013-03-30 13:42:00,48.0,39.0,30.21,WSW,246,2.0,8.0,72,0.00,,,0.04,,2013-03-30 17:42:00,
2013-03-30 13:53:00,49.0,40.0,30.20,SW,228,7.0,12.0,71,0.00,,,0.04,,2013-03-30 17:53:00,
2013-03-30 14:03:00,49.0,39.0,30.20,SSE,159,7.0,12.0,69,0.00,,,0.04,,2013-03-30 18:03:00,
2013-03-30 14:13:00,50.0,40.0,30.20,East,85,3.0,8.0,68,0.00,,,0.04,,2013-03-30 18:13:00,
2013-03-30 14:22:00,50.0,40.0,30.20,East,85,3.0,8.0,68,0.00,,,0.04,,2013-03-30 18:22:00,
2013-03-30 14:32:00,50.0,39.0,30.20,SSW,211,9.0,13.0,66,0.00,,,0.04,,2013-03-30 18:32:00,
2013-03-30 14:42:00,50.0,39.0,30.20,SSW,211,9.0,13.0,66,0.00,,,0.04,,2013-03-30 18:42:00,
2013-03-30 14:53:00,49.0,39.0,30.20,West,266,11.0,14.0,68,0.00,,,0.04,,2013-03-30 18:53:00,
2013-03-30 15:03:00,49.0,39.0,30.19,SSW,200,5.0,14.0,67,0.00,,,0.04,,2013-03-30 19:03:00,
2013-03-30 15:13:00,49.0,39.0,30.19,SSW,200,5.0,14.0,67,0.00,,,0.04,,2013-03-30 19:13:00,
2013-03-30 15:22:00,50.0,39.0,30.18,South,188,7.0,10.0,65,0.00,,,0.04,,2013-03-30 19:22:00,
2013-03-30 15:32:00,51.0,38.0,30.18,SSW,203,5.0,15.0,62,0.00,,,0.04,,2013-03-30 19:32:00,
2013-03-30 15:42:00,51.0,38.0,30.18,SSW,203,5.0,15.0,62,0.00,,,0.04,,2013-03-30 19:42:00,
2013-03-30 15:53:00,52.0,38.0,30.17,WSW,246,11.0,15.0,58,0.00,,,0.04,,2013-03-30 19:53:00,
2013-03-30 16:02:00,52.0,38.0,30.17,South,186,11.0,18.0,58,0.00,,,0.04,,2013-03-30 20:02:00,
2013-03-30 16:12:00,52.0,38.0,30.17,South,186,11.0,18.0,58,0.00,,,0.04,,2013-03-30 20:12:00,
2013-03-30 16:22:00,53.0,38.0,30.16,West,266,12.0,24.0,56,0.00,,,0.04,,2013-03-30 20:22:00,
2013-03-30 16:33:00,52.0,38.0,30.16,SW,232,11.0,15.0,58,0.00,,,0.04,,2013-03-30 20:33:00,
2013-03-30 16:42:00,52.0,38.0,30.16,SW,232,11.0,15.0,58,0.00,,,0.04,,2013-03-30 20:42:00,
2013-03-30 16:53:00,53.0,37.0,30.16,SW,228,9.0,17.0,54,0.00,,,0.04,,2013-03-30 20:53:00,
2013-03-30 17:02:00,53.0,37.0,30.15,WSW,248,6.0,16.0,54,0.00,,,0.04,,2013-03-30 21:02:00,
2013-03-30 17:12:00,53.0,37.0,30.15,WSW,248,6.0,16.0,54,0.00,,,0.04,,2013-03-30 21:12:00,
2013-03-30 17:23:00,52.0,36.0,30.15,SW,235,13.0,20.0,55,0.00,,,0.04,,2013-03-30 21:23:00,
2013-03-30 17:34:00,52.0,36.0,30.14,SW,226,10.0,22.0,55,0.00,,,0.04,,2013-03-30 21:34:00,
2013-03-30 17:43:00,52.0,36.0,30.14,SW,226,10.0,22.0,55,0.00,,,0.04,,2013-03-30 21:43:00,
2013-03-30 17:53:00,53.0,36.0,30.15,WSW,249,22.0,28.0,53,0.00,,,0.04,,2013-03-30 21:53:00,
2013-03-30 18:03:00,53.0,37.0,30.15,SSW,211,14.0,21.0,54,0.00,,,0.04,,2013-03-30 22:03:00,
2013-03-30 18:13:00,53.0,37.0,30.15,SSW,211,14.0,21.0,54,0.00,,,0.04,,2013-03-30 22:13:00,
2013-03-30 18:23:00,52.0,35.0,30.14,WSW,250,17.0,23.0,53,0.00,,,0.04,,2013-03-30 22:23:00,
2013-03-30 18:33:00,52.0,36.0,30.14,WSW,245,17.0,22.0,54,0.00,,,0.04,,2013-03-30 22:33:00,
2013-03-30 18:43:00,52.0,36.0,30.14,WSW,245,17.0,22.0,54,0.00,,,0.04,,2013-03-30 22:43:00,
2013-03-30 18:54:00,52.0,36.0,30.14,WSW,243,19.0,22.0,54,0.00,,,0.04,,2013-03-30 22:54:00,
2013-03-30 19:02:00,52.0,36.0,30.14,SW,222,13.0,16.0,55,0.00,,,0.04,,2013-03-30 23:02:00,
2013-03-30 19:12:00,52.0,36.0,30.14,SW,222,13.0,16.0,55,0.00,,,0.04,,2013-03-30 23:12:00,
2013-03-30 19:22:00,52.0,35.0,30.14,SW,233,19.0,22.0,53,0.00,,,0.04,,2013-03-30 23:22:00,
2013-03-30 19:33:00,52.0,36.0,30.14,WSW,249,18.0,20.0,54,0.00,,,0.04,,2013-03-30 23:33:00,
2013-03-30 19:42:00,52.0,36.0,30.14,WSW,249,18.0,20.0,54,0.00,,,0.04,,2013-03-30 23:42:00,
2013-03-30 19:53:00,52.0,36.0,30.14,WSW,248,17.0,23.0,55,0.00,,,0.04,,2013-03-30 23:53:00,
2013-03-30 20:02:00,52.0,37.0,30.14,WSW,246,17.0,19.0,56,0.00,,,0.04,,2013-03-31 00:02:00,
2013-03-30 20:12:00,52.0,37.0,30.14,WSW,246,17.0,19.0,56,0.00,,,0.04,,2013-03-31 00:12:00,
2013-03-30 20:22:00,51.0,36.0,30.14,WSW,245,18.0,21.0,57,0.00,,,0.04,,2013-03-31 00:22:00,
2013-03-30 20:32:00,51.0,37.0,30.14,WSW,243,17.0,19.0,58,0.00,,,0.04,,2013-03-31 00:32:00,
2013-03-30 20:42:00,51.0,37.0,30.14,WSW,243,17.0,19.0,58,0.00,,,0.04,,2013-03-31 00:42:00,
2013-03-30 20:53:00,51.0,37.0,30.14,WSW,248,15.0,17.0,58,0.00,,,0.04,,2013-03-31 00:53:00,
2013-03-30 21:02:00,51.0,37.0,30.14,WSW,248,16.0,17.0,59,0.00,,,0.04,,2013-03-31 01:02:00,
2013-03-30 21:12:00,51.0,37.0,30.14,WSW,248,16.0,17.0,59,0.00,,,0.04,,2013-03-31 01:12:00,
2013-03-30 21:22:00,51.0,37.0,30.13,West,259,16.0,16.0,58,0.00,,,0.04,,2013-03-31 01:22:00,
2013-03-30 21:32:00,51.0,36.0,30.13,WSW,255,15.0,18.0,57,0.00,,,0.04,,2013-03-31 01:32:00,
2013-03-30 21:42:00,51.0,36.0,30.13,WSW,255,15.0,18.0,57,0.00,,,0.04,,2013-03-31 01:42:00,
2013-03-30 21:53:00,52.0,39.0,30.13,West,259,16.0,16.0,60,0.00,,,0.04,,2013-03-31 01:53:00,
2013-03-30 22:02:00,52.0,39.0,30.14,WSW,245,15.0,16.0,60,0.00,,,0.04,,2013-03-31 02:02:00,
2013-03-30 22:22:00,52.0,38.0,30.14,SW,233,12.0,13.0,59,0.00,,,0.04,,2013-03-31 02:22:00,
2013-03-30 22:32:00,52.0,39.0,30.13,WSW,240,12.0,13.0,60,0.00,,,0.04,,2013-03-31 02:32:00,
2013-03-30 22:43:00,52.0,39.0,30.13,WSW,240,12.0,13.0,60,0.00,,,0.04,,2013-03-31 02:43:00,
2013-03-30 22:52:00,51.0,37.0,30.14,SSW,198,8.0,9.0,59,0.00,,,0.04,,2013-03-31 02:52:00,
2013-03-30 23:02:00,51.0,37.0,30.13,SSW,193,9.0,10.0,59,0.00,,,0.04,,2013-03-31 03:02:00,
2013-03-30 23:13:00,51.0,37.0,30.13,SSW,193,9.0,10.0,59,0.00,,,0.04,,2013-03-31 03:13:00,
2013-03-30 23:22:00,51.0,38.0,30.13,South,191,10.0,11.0,61,0.00,,,0.04,,2013-03-31 03:22:00,
2013-03-30 23:33:00,52.0,38.0,30.13,South,180,13.0,14.0,59,0.00,,,0.04,,2013-03-31 03:33:00,
2013-03-30 23:43:00,52.0,38.0,30.13,South,180,13.0,14.0,59,0.00,,,0.04,,2013-03-31 03:43:00,
2013-03-30 23:53:00,51.0,38.0,30.13,South,187,12.0,14.0,60,0.00,,,0.04,,2013-03-31 03:53:00,